TITAN 3C TRANSTAGE DEB, 43454

Orbit data source: Space-Track

TITAN 3C TRANSTAGE DEB, 43454 is space debris in GEO originally from a launch on Sun, 09 Feb 1969 UTC launched from the Air Force Eastern Test Range (AFETR). Debris objects in space refer to the collection of defunct objects orbiting the Earth. Examples of debris include non-operational satellites, rocket bodies, and fragments generated from explosions, collisions, or faulty payload assembly.

Loading next visibility...
Identifier
43454, 1969-013M
Orbit
GEO
Country
Flag of USUS
Related business
Manufacturer
Martin Marietta
Mission
Spacecraft
Bus & Motor
Unknown
Mass
Unknown
Launch date (UTC)
1969-02-09 (57 years ago)
Launch vehicle
Unknown
Launch site
Air Force Eastern Test Range (AFETR)
Object type
Payload
Rocket body
Debris
Shape & HBR
Unknown shape, 1.1 m
Radar Cross Section
RCS unknown

Expand to show TLE details & history
Last TLE update: 13 hours ago

TLE from 13 hours ago
0 TITAN 3C TRANSTAGE DEB
1 43454U 69013M   25352.10209116 -.00000195  00000-0  00000-0 0  9992
2 43454   0.8241 146.0820 0548963 323.5089 256.4500  1.02846386 28766
Epoch: 2025-12-18T02:27Z
TLE epoch observation values (Epoch: 2025-12-18T02:27:00.676Z)
Latitude
-0.45355°
Longitude
-123.71779°
Altitude
35,722.142 km
Speed
3.053 km/s
True Right ascension
23h 59m 59s
True Declination
0° 27' 11"
Sunlit
Object was in daylight at epoch
Visualization orbit readout
Latitude
Unknown
Longitude
Unknown
Altitude
Unknown
Speed
Unknown
Apparent Right ascension
Unknown
Apparent Declination
Unknown
Sunlit
N/A
Visualization observer readout
Local Sidereal Time
14:42:33
Azimuth
Unknown
Elevation
Unknown
Doppler factor
Unknown
Orbital elements
Apogee altitude
37,356.987 km
Perigee altitude
32,805.077 km
Semi-major axis
41,459.169 km
Eccentricity
0.0549
Inclination
0.8241°
RAAN
146.082°
Arg. of periapsis
323.5089°
True anomaly
250.44227°
Mean anomaly
256.45°
Eccentric anomaly
253.43521°
Mean motion
0.25711 °/min
Orbital period
1,400.2 mins
BSTAR
0
Loading maneuver chart data...
Computing Atmospheric mass density...

Documentation

Showing up to 5 results
|